Location: Perryvale
(54.4667°N, 113.3833°W)
Time: 19:54:48
(UTC+00:00)

SR - Pass Details

Date: 22 May 2024
Orbit: 580 x 858 km, 66.7° (Epoch: 19 June)

Event Time Altitude Azimuth Distance (km) Brightness Sun altitude
Rises 09:09:37 0° 318° (NW) 2,927 ? -12.0°
Reaches altitude 10° 09:11:57 10° 319° (NW) 1,983 ? -11.9°
Maximum altitude 09:16:22 81° 46° (NE) 607 ? -11.6°
Drops below altitude 10° 09:20:37 10° 136° (SE) 1,899 ? -11.4°
Sets 09:22:49 0° 137° (SE) 2,791 ? -11.2°
